Location: Aldenham
(51.6667°N, 0.3500°W)
Time: 05:32:06
(UTC+00:00)

CZ-2D R/B - Visible Passes

Search period start: 10 February 2026 00:00
Search period end: 20 February 2026 00:00
Orbit: 525 x 595 km, 98.0° (Epoch: 9 February)

Date Brightness Start Highest point End Pass type
(mag) Time Alt. Az. Time Alt. Az. Time Alt. Az.
10 Feb 3.2 18:09:45 10° SSE 18:13:37 68° ENE 18:17:36 10° N visible
10 Feb 6.6 19:46:54 10° WSW 19:49:00 14° W 19:51:08 10° NW visible
11 Feb 3.3 18:08:35 10° SSE 18:12:27 66° ENE 18:16:27 10° N visible
11 Feb 6.5 19:45:37 10° WSW 19:47:49 14° W 19:50:04 10° NW visible
12 Feb 3.3 18:07:25 10° SSE 18:11:17 64° ENE 18:15:17 10° N visible
12 Feb 6.5 19:44:20 10° SW 19:46:39 15° W 19:48:59 10° NW visible
13 Feb 3.3 18:06:14 10° SSE 18:10:07 62° ENE 18:14:07 10° N visible
13 Feb 6.5 19:43:03 10° SW 19:45:27 15° W 19:47:53 10° NW visible
14 Feb 3.4 18:05:04 10° SSE 18:08:56 60° ENE 18:12:56 10° N visible
14 Feb 6.4 19:41:46 10° SW 19:44:15 16° W 19:46:47 10° NW visible
15 Feb 3.4 18:03:53 10° SSE 18:07:45 58° ENE 18:11:45 10° N visible
15 Feb 6.4 19:40:29 10° SW 19:43:03 17° W 19:45:40 10° NW visible
16 Feb 3.4 18:02:41 10° SSE 18:06:33 56° ENE 18:10:33 10° N visible
16 Feb 6.4 19:39:11 10° SW 19:41:50 17° W 19:44:32 10° NW visible
17 Feb 3.5 18:01:29 10° SSE 18:05:22 54° ENE 18:09:22 10° N visible
17 Feb 6.3 19:37:53 10° SW 19:40:37 18° W 19:43:24 10° NW visible
18 Feb 3.5 18:00:17 10° SSE 18:04:10 53° ENE 18:08:09 10° N visible
18 Feb 6.3 19:36:35 10° SW 19:39:23 18° W 19:42:15 10° NW visible
19 Feb 3.5 17:59:04 10° SE 18:02:57 51° ENE 18:06:56 10° N visible
19 Feb 6.2 19:35:17 10° SW 19:38:09 19° W 19:41:06 10° NW visible
